THOR ABLESTAR DEB, 323

Orbit data source: Space-Track

THOR ABLESTAR DEB, 323 is space debris in LEO originally from a launch on Thu, 29 Jun 1961 UTC launched from the Air Force Eastern Test Range (AFETR). Debris objects in space refer to the collection of defunct objects orbiting the Earth. Examples of debris include non-operational satellites, rocket bodies, and fragments generated from explosions, collisions, or faulty payload assembly.

Loading next visibility...
Identifier
323, 1961-015CZ
Orbit
LEO
Country
Flag of USUS
Related business
Manufacturer
Unknown
Mission
Spacecraft
Bus & Motor
Unknown
Mass
Unknown
Launch date (UTC)
1961-06-29 (64 years ago)
Launch vehicle
Unknown
Launch site
Air Force Eastern Test Range (AFETR)
Object type
Payload
Rocket body
Debris
Shape & HBR
Unknown shape, 0.1 m
Radar Cross Section
Small (<0.1 m²)

Expand to show TLE details & history
Last TLE update: 21 hours ago

TLE from 21 hours ago
0 THOR ABLESTAR DEB
1 00323U 61015CZ  25342.12500161  .00000914  00000-0  48635-3 0  9996
2 00323  66.8389 225.4686 0081787 230.6103 128.7727 14.16188045301410
Epoch: 2025-12-08T03:00Z
TLE epoch observation values (Epoch: 2025-12-08T03:00:00.139Z)
Latitude
-0°
Longitude
103.33949°
Altitude
877.634 km
Speed
7.395 km/s
True Right ascension
15h 01m 52s
True Declination
0° 00' 00"
Sunlit
Object was in daylight at epoch
Visualization orbit readout
Latitude
Unknown
Longitude
Unknown
Altitude
Unknown
Speed
Unknown
Apparent Right ascension
Unknown
Apparent Declination
Unknown
Sunlit
N/A
Visualization observer readout
Local Sidereal Time
21:58:13
Azimuth
Unknown
Elevation
Unknown
Doppler factor
Unknown
Orbital elements
Apogee altitude
895.65 km
Perigee altitude
777.635 km
Semi-major axis
7,214.78 km
Eccentricity
0.00818
Inclination
66.8389°
RAAN
225.4686°
Arg. of periapsis
230.6103°
True anomaly
129.49871°
Mean anomaly
128.7727°
Eccentric anomaly
129.13617°
Mean motion
3.54167 °/min
Orbital period
101.65 mins
BSTAR
0.00048635
Loading maneuver chart data...
Computing Atmospheric mass density...

Documentation

Showing up to 5 results
|